Flag for U.S.A. Weather past 2 weeks in Macon, Georgia, U.S.A.

Now
65 °F

Clear.


Feels Like: 65 °F
Forecast: 66 / 84 °F
Wind: 6 mph from Southwest

Location: Middle Georgia Regional Airport

Current Time: Apr 26, 2015 at 1:41:31 AM

Latest Report: Apr 26, 2015 at 12:53 AM


Visibility: 10 mi

Pressure: 29.66 "Hg

Humidity: 97%

Dew point: 64 °F

Location of MaconLocation

Historic Weather in Macon — Graph

°F

Macon temperature yesterday

Maximum temperature yesterday: 82 °F (at 4:53 PM)
Minimum temperature yesterday: 60 °F (at 9:53 AM)
Average temperature yesterday: 67 °F

Past Weeks' High & Low Weather Summary

 TemperatureHumidityPressure
High83 °F (Apr 14, 1:53 PM)100% (Apr 12, 5:03 AM)30.24 "Hg (Apr 12, 5:03 AM)
Low45 °F (Apr 22, 6:00 AM)32% (Apr 21, 5:53 PM)29.65 "Hg (Apr 25, 5:57 PM)
Average66 °F81%29.99 "Hg
* Reported Apr 10 11:53 PM — Apr 25 11:53 PM, Macon, Weather by CustomWeather, © 2015

Note: Actual official high and low records may vary slightly from our data, if they occured in-between our weather recording intervals... More about our weather records

Advertising

Macon weather history for previous 24 hours

 ConditionsComfort  
Time TempWeatherWind HumidityBarometerVisibility
11:53 PM
Sat, Apr 25
66 °FClear.5 mph93%29.66 "Hg10 mi
10:53 PM67 °FClear.5 mph93%29.67 "Hg9 mi
9:53 PM67 °FClear.5 mph93%29.67 "Hg10 mi
8:53 PM67 °FPartly sunny.No wind90%29.67 "Hg10 mi
7:53 PM67 °FLight rain. Cloudy.9 mph93%29.66 "Hg7 mi
6:53 PM67 °FThunderstorms. Fog.7 mph90%29.66 "Hg5 mi
5:57 PM79 °FThunderstorms. Broken clouds.5 mph74%29.65 "Hg10 mi
4:53 PM82 °FScattered clouds.3 mph70%29.66 "Hg10 mi
3:53 PM79 °FScattered clouds.3 mph74%29.69 "Hg10 mi
2:53 PM78 °FPartly sunny.10 mph74%29.73 "Hg10 mi
1:53 PM75 °FOvercast.8 mph79%29.74 "Hg10 mi
12:53 PM72 °FMostly cloudy.10 mph84%29.77 "Hg10 mi
11:53 AM67 °FBroken clouds.3 mph90%29.80 "Hg10 mi
10:53 AM63 °FLow clouds.6 mph100%29.80 "Hg10 mi
9:53 AM60 °FThunderstorms. Fog.8 mph100%29.83 "Hg3 mi
9:00 AM63 °FThunderstorms. Fog.3 mph94%29.89 "Hg1 mi
7:53 AM61 °FMostly cloudy.6 mph87%29.84 "Hg10 mi
6:53 AM61 °FMostly cloudy.6 mph87%29.85 "Hg10 mi
5:53 AM62 °FClear.5 mph78%29.86 "Hg10 mi
4:53 AM62 °FClear.3 mph75%29.87 "Hg10 mi
3:53 AM63 °FClear.5 mph75%29.86 "Hg10 mi
2:53 AM64 °FPassing clouds.6 mph73%29.88 "Hg10 mi
1:53 AM63 °FPassing clouds.5 mph78%29.90 "Hg10 mi
Weather by CustomWeather, © 2015

See weather overviewHow to use our weather pages